{"data":{"norad_id":68225,"epoch":"2026-05-25T02:43:32.867040Z","epoch_age_seconds":61384,"freshness":"FRESH","line1":"1 68225U 26053U   26145.11357485  .00018957  00000+0  58767-3 0  9996","line2":"2 68225  97.2865  20.6170 0001258  93.7467 266.3920 15.33465260 11915","mean_motion":15.3346526,"eccentricity":0.0001258,"inclination_deg":97.2865,"raan_deg":20.617,"arg_perigee_deg":93.7467,"mean_anomaly_deg":266.392,"bstar":0.00058767,"rev_number":1191,"period_min":93.904963976817,"perigee_km":464.62196825306,"apogee_km":466.3438230188,"semimajor_km":6843.6198956359,"source":"CELESTRAK","updated_at":"2026-05-25T13:38:21.881055Z"}}